Syracuse, NY

5:06 PM EST on December 08, 2019 (GMT -0500)
Syracuse Hancock International

Weather History for KSYR - July, 2019

Change the Weather History Date:

Friday, July 19, 2019

  Actual Average Record
Temperature  
Mean Temperature 81 °F 72 °F  
Max Temperature 92 °F 82 °F 97 °F (1946)
Min Temperature 70 °F 61 °F 49 °F (1939)
Degree Days  
Heating Degree Days 0 0  
Month to date heating degree days 0 2  
Since 1 June heating degree days 47 63  
Since 1 July heating degree days 0 2  
Cooling Degree Days 16 7  
Month to date cooling degree days 189 125  
Year to date cooling degree days 285 268  
Since 1 June cooling degree days 272 238  
Growing Degree Days 30 (Base 50)    
Moisture  
Dew Point 72 °F    
Average Humidity 76    
Maximum Humidity 93    
Minimum Humidity 59    
Precipitation  
Precipitation 0.01 in 0.12 in 1.58 in (1975)
Month to date precipitation 1.33 2.32  
Year to date precipitation 23.37 19.56  
Snow  
Snow 0.00 in 0.00 in 0.00 in (2002)
Month to date snowfall 0.0 0.0  
Since 1 June snowfall 0.0 0.0  
Since 1 July snowfall 0.0 0.0  
Snow Depth 0.00 in    
Sea Level Pressure  
Sea Level Pressure 29.82 in    
Wind  
Wind Speed 7 mph (SW)    
Max Wind Speed 18 mph    
Max Gust Speed 23 mph    
Visibility 10 miles    
Events Rain , Thunderstorm    
T = Trace of Precipitation, MM = Missing Value Source: NWS Daily Summary

Daily Weather History Graph

Daily Weather History Graph

Search for Another Location

Airport or City:

Astronomy

Jul. 19, 2019 Rise Set
Actual Time 5:41 AM EDT 8:39 PM EDT
Civil Twilight 5:08 AM EDT 9:12 PM EDT
Nautical Twilight 4:25 AM EDT 9:55 PM EDT
Astronomical Twilight 3:34 AM EDT 10:45 PM EDT
Moon 10:32 PM EDT (7/19) 8:08 AM EDT (7/19)
Length of Visible Light 16h 04m
Length of Day
14h 57m
Waning Gibbous, 93% of the Moon is Illuminated
Jul 19
Waning Gibbous
Jul 24
Last Quarter
Jul 31
New
Aug 7
First Quarter
Aug 15
Full

Hourly Weather History & Observations

Time (EDT) Temp. Heat Index Dew Point Humidity Pressure Visibility Wind Dir Wind Speed Gust Speed Precip Events Conditions
12:54 AM 75.0 °F - 69.1 °F 82% 29.85 in 10.0 mi SE 3.5 mph - N/A   Partly Cloudy
1:54 AM 72.0 °F - 69.1 °F 91% 29.84 in 10.0 mi East 3.5 mph - N/A   Mostly Cloudy
2:54 AM 72.0 °F - 69.1 °F 91% 29.83 in 10.0 mi East 3.5 mph - N/A   Scattered Clouds
3:54 AM 70.0 °F - 66.9 °F 90% 29.82 in 10.0 mi ENE 3.5 mph - N/A   Scattered Clouds
4:54 AM 71.1 °F - 68.0 °F 90% 29.81 in 10.0 mi East 3.5 mph - N/A   Scattered Clouds
5:54 AM 73.9 °F - 69.1 °F 85% 29.81 in 10.0 mi SSW 6.9 mph - N/A   Mostly Cloudy
6:54 AM 77.0 °F - 69.1 °F 76% 29.81 in 10.0 mi SW 6.9 mph - N/A   Mostly Cloudy
7:54 AM 81.0 °F 84.4 °F 70.0 °F 69% 29.81 in 10.0 mi SW 9.2 mph - N/A   Scattered Clouds
8:54 AM 82.9 °F 87.0 °F 70.0 °F 65% 29.82 in 10.0 mi SW 10.4 mph - N/A   Mostly Cloudy
9:54 AM 84.0 °F 89.0 °F 71.1 °F 65% 29.83 in 10.0 mi West 13.8 mph - N/A   Mostly Cloudy
10:54 AM 86.0 °F 92.2 °F 72.0 °F 63% 29.83 in 10.0 mi West 9.2 mph - N/A   Mostly Cloudy
11:54 AM 84.0 °F 89.6 °F 72.0 °F 67% 29.83 in 10.0 mi WSW 9.2 mph - N/A   Overcast
12:54 PM 88.0 °F 95.6 °F 73.0 °F 61% 29.81 in 10.0 mi WSW 8.1 mph - N/A   Overcast
1:54 PM 90.0 °F 99.0 °F 73.9 °F 59% 29.82 in 10.0 mi West 9.2 mph - N/A   Mostly Cloudy
2:54 PM 91.9 °F 103.2 °F 75.0 °F 58% 29.80 in 10.0 mi WSW 10.4 mph - N/A   Mostly Cloudy
3:54 PM 88.0 °F 96.5 °F 73.9 °F 63% 29.78 in 10.0 mi WSW 12.7 mph - 0.00 in Rain , Thunderstorm Light Rain
4:04 PM 87.1 °F 97.3 °F 75.9 °F 69% 29.80 in 10.0 mi WSW 12.7 mph - 0.00 in Rain , Thunderstorm Light Thunderstorms and Rain
4:18 PM 84.9 °F 95.3 °F 77.0 °F 77% 29.82 in 8.0 mi West 8.1 mph - 0.01 in Rain , Thunderstorm Light Rain
4:39 PM 82.9 °F 92.8 °F 78.1 °F 85% 29.81 in 10.0 mi Calm Calm - 0.01 in   Overcast
4:54 PM 84.9 °F 94.1 °F 75.9 °F 74% 29.78 in 10.0 mi WSW 3.5 mph - 0.01 in   Mostly Cloudy
5:54 PM 86.0 °F 96.9 °F 77.0 °F 74% 29.79 in 10.0 mi West 8.1 mph - N/A   Overcast
6:54 PM 84.9 °F 94.1 °F 75.9 °F 74% 29.81 in 10.0 mi WNW 6.9 mph - N/A   Overcast
7:54 PM 84.0 °F 89.6 °F 72.0 °F 67% 29.83 in 10.0 mi West 11.5 mph - N/A   Overcast
8:54 PM 81.0 °F 84.4 °F 70.0 °F 69% 29.83 in 10.0 mi WSW 5.8 mph - N/A   Mostly Cloudy
9:54 PM 80.1 °F 83.8 °F 72.0 °F 76% 29.82 in 10.0 mi SSW 5.8 mph - N/A   Mostly Cloudy
10:54 PM 80.1 °F 83.8 °F 72.0 °F 76% 29.83 in 10.0 mi SW 5.8 mph - 0.00 in   Overcast
11:54 PM 79.0 °F - 72.0 °F 79% 29.81 in 10.0 mi South 4.6 mph - N/A   Overcast